sat.trackr.live / text

‹ back to catalog

STARLINK-1635

NORAD 46172 · 2020-057BH

PAYLOAD ACTIVE UNKNOWN

§ Identity

Operator
Country
US
Launch date
2020-08-18
Launch site
AFETR
Launch vehicle
Mass (kg)
RCS (m²)

Purposes: comms

External: N2YO · Heavens-Above · Gunter

§ Orbital elements

Epoch: 2026-05-24T18:20:09.004704Z

Period
91.32 min
Inclination
53.0360°
Eccentricity
0.0006664
Mean motion
15.76866874 rev/d
Perigee alt
334.8 km
Apogee alt
343.8 km
Semi-major
6,717.5 km
B*
7.4854e-4
RAAN
241.9681°
Arg perigee
297.0307°
Mean anomaly
63.0032°
Rev number
32,009

§ Raw data

STARLINK-16351 46172U 20057BH  26144.76399311  .00124583  00000+0  74854-3 0  99932 46172  53.0360 241.9681 0006664 297.0307  63.0032 15.76866874320096

JSON: /api/v1/satellites/46172 · /tle

For live sub-satellite position, see the globe view (requires WebGL).

§ Visibility from observer

Set your observer location to see the next 7 days of passes ≥ 10°. The values pass through the URL so the page stays shareable.

No JS? Fill the form by hand. The geolocation button needs JavaScript.